Погода в Беэр-Шеве

Израиль     31°15′11″N   34°46′56″E
темп.,
°C
ветер,
м/с
пор.,
м/с
влажн.,
%
обл.,
%
осадки,
мм/ч
давл.,
гПа
погр.,
м
2 марта, вт
вт223:00+12ююз12800 0.0 102123
02:00+12зюз23750 0.0 102026
05:00+11зюз238738 0.0 102131
08:00+12юз338123 0.0 1021322
11:00+15зюз346752 0.1 1021901
14:00+17зюз554748 0.1 10191369
17:00+13сз66640 0.0 1019510
20:00+12с12720 0.0 1020173
3 марта, ср
ср323:00+11юз22730 0.0 102146
02:00+11юз35821 0.0 1020109
05:00+11юз458135 0.1 1020175
08:00+11юз567546 0.1 1020452
11:00+14зюз556035 0.0 10191131
14:00+15з554547 0.1 10171526
17:00+13зсз67601 0.0 1017922
20:00+12зсз23670 0.0 1018260
4 марта, чт
чт423:00+10з48740 0.4 1018247
02:00+10юз597418 1.4 1017295
05:00+8юз6107344 0.4 1018296
08:00+9зюз687231 0.4 1018598
11:00+13з666346 0.3 10191033
14:00+15зсз895433 0.5 10171425
17:00+14зсз78631 0.0 10191126
20:00+12з46765 0.0 1021196
5 марта, пт
пт523:00+11з22822 0.0 102227
02:00+11ююз348222 0.1 102275
05:00+11ююз348234 0.0 102381
08:00+13зюз347238 0.1 1025243
11:00+15з22547 0.0 10241056
14:00+18сз33474 0.0 10221111
17:00+16ссз44650 0.0 1022574
20:00+13ссв45740 0.0 1024202
6 марта, сб
сб623:00+13ссв22740 0.0 102430
02:00+12св12720 0.0 102323
05:00+11всв12680 0.0 102323
08:00+14вюв35500 0.0 1023191
11:00+20в23330 0.0 1022601
14:00+21ссз43340 0.0 1020736
17:00+17ссз67530 0.0 1019291
20:00+14с35720 0.0 1020133